Tianmu 1-16

operational
NORAD ID: 58701 Int'l Des: 2024-004 Owner: TIANMU Country: CN
LEOCIRCULARRETROGRADESSO

Über Tianmu 1-16

Beschreibung wird geladen...

Live-Position

3D-Globus wird geladen...

Nächste Überflüge

Höhenverlauf

Altitude vs Time

uPlot chart will show altitude changes over time

Zweizeiliger Elementsatz

1 58701U 24004B 26061.62130325 .00008021 00000-0 31708-3 0 9991
2 58701 97.4601 247.1980 0005783 20.4357 339.7111 15.25739462119522
Epoch: 2. März 2026 • Age: 25 hours

Aktueller Status

Höhe 500.1 km
Geschwindigkeit 7.62 km/s
Subsatellitenpunkt 79.56°N, 31.08°E
Startdatum 5. Jan. 2024
Alter 2.1 years
Typ other

Technische Details

Klassifizierung Payload
Masse 50.00 kg
Trockenmasse 50.00 kg
Gesamtmasse 50.00 kg
Länge 1.50 m
Durchmesser 1.00 m
Spannweite 1.50 m
Form Box
Hersteller TIANMU
Bus-Typ Tianmu
Phasenstatus In Orbit
Besitzer/Staat TIANMU/CN

Große Konstellationen

Loading constellations...